Almeria, Spain

7:29 AM CEST on July 19, 2018 (GMT +0200)
Almeria

Weather History for LEAM - January, 2018

Change the Weather History Date:

Saturday, January 13, 2018

  Actual Average Record
Temperature  
Mean Temperature 51 °F -  
Max Temperature 58 °F 59 °F 66 °F (2016)
Min Temperature 44 °F 46 °F 41 °F (2007)
Degree Days  
Heating Degree Days 14    
Growing Degree Days 1 (Base 50)    
Moisture  
Dew Point 42 °F    
Average Humidity 67    
Maximum Humidity 82    
Minimum Humidity 44    
Precipitation  
Precipitation 0.00 in 0.03 in - ()
Sea Level Pressure  
Sea Level Pressure 30.12 in    
Wind  
Wind Speed 7 mph ()    
Max Wind Speed 21 mph    
Max Gust Speed -    
Visibility 6.2 miles    
Events      
Averages and records for this station are not official NWS values.
T = Trace of Precipitation, MM = Missing Value Source: Averaged Metar Reports

Daily Weather History Graph

Daily Weather History Graph

Search for Another Location

Airport or City:

Astronomy

Jan. 13, 2018 Rise Set
Actual Time 8:22 AM CET 6:14 PM CET
Civil Twilight 7:53 AM CET 6:43 PM CET
Nautical Twilight 7:21 AM CET 7:14 PM CET
Astronomical Twilight 6:50 AM CET 7:46 PM CET
Moon 5:12 AM CET (1/13) 3:39 PM CET (1/13)
Length of Visible Light 10h 49m
Length of Day
9h 52m
Waning Crescent, 11% of the Moon is Illuminated
Jan 13
Waning Crescent
Jan 17
New
Jan 24
First Quarter
Jan 31
Full
Feb 7
Last Quarter

Hourly Weather History & Observations

Time (CET) Temp. Windchill Dew Point Humidity Pressure Visibility Wind Dir Wind Speed Gust Speed Precip Events Conditions
12:00 AM 51 °F - 42 °F 62% 30.25 in - NNW 6.9 mph - -  
12:00 AM 50.0 °F - 42.8 °F 76% 30.24 in - NNW 6.9 mph - N/A   Clear
12:30 AM 50.0 °F - 41.0 °F 71% 30.24 in - NNW 3.5 mph - N/A   Clear
1:00 AM 49 °F - 40 °F 61% 30.23 in - North 6.9 mph - -  
1:00 AM 48.2 °F - 39.2 °F 71% 30.21 in - North 6.9 mph - N/A   Clear
1:30 AM 48.2 °F - 39.2 °F 71% 30.21 in - North 5.8 mph - N/A   Clear
2:00 AM 46.4 °F 42.9 °F 39.2 °F 76% 30.18 in 6.2 mi NNW 6.9 mph - N/A   Unknown
2:30 AM 46.4 °F 42.4 °F 37.4 °F 71% 30.18 in 6.2 mi NNW 8.1 mph - N/A   Unknown
3:00 AM 46.4 °F 42.4 °F 37.4 °F 71% 30.18 in 6.2 mi North 8.1 mph - N/A   Unknown
3:30 AM 44.6 °F 41.4 °F 37.4 °F 76% 30.18 in 6.2 mi North 5.8 mph - N/A   Unknown
4:00 AM 45 °F - 37 °F 64% 30.18 in - NNW 8.1 mph - -  
4:00 AM 44.6 °F 40.2 °F 37.4 °F 76% 30.18 in 6.2 mi NNW 8.1 mph - N/A   Unknown
4:30 AM 46.4 °F 43.5 °F 35.6 °F 66% 30.15 in 6.2 mi NNW 5.8 mph - N/A   Unknown
5:00 AM 46 °F - 35 °F 53% 30.16 in - NNW 10.4 mph - -  
5:00 AM 46.4 °F 41.9 °F 33.8 °F 62% 30.15 in - NNW 9.2 mph - N/A   Clear
6:00 AM 47 °F - 32 °F 44% 30.15 in - NNW 11.5 mph - -  
6:00 AM 46.4 °F 41.9 °F 32.0 °F 57% 30.12 in - NNW 9.2 mph - N/A   Clear
6:30 AM 46.4 °F 42.4 °F 32.0 °F 57% 30.12 in - NNW 8.1 mph - N/A   Clear
7:00 AM 46 °F - 36 °F 57% 30.15 in 28 mi Calm Calm - -   Clear
7:00 AM 46.4 °F - 35.6 °F 66% 30.12 in - Calm Calm - N/A   Clear
7:30 AM 46.4 °F - 33.8 °F 62% 30.12 in - Variable 2.3 mph - N/A   Clear
8:00 AM 45 °F - 35 °F 59% 30.15 in - East 2.3 mph - -  
8:00 AM 44.6 °F - 35.6 °F 71% 30.12 in - Variable 1.2 mph - N/A   Clear
8:30 AM 44.6 °F - 35.6 °F 71% 30.12 in - Calm Calm - N/A   Clear
9:00 AM 47 °F - 35 °F 52% 30.16 in - North 4.6 mph - -  
9:00 AM 46.4 °F 44.3 °F 33.8 °F 62% 30.12 in - North 4.6 mph - N/A   Clear
9:30 AM 48.2 °F - 37.4 °F 66% 30.15 in - Variable 2.3 mph - N/A   Clear
10:00 AM 49 °F - 38 °F 54% 30.17 in 31 mi NNW 2.3 mph - -   Partly Cloudy
10:00 AM 48.2 °F - 37.4 °F 66% 30.15 in - Variable 2.3 mph - N/A   Clear
10:30 AM 50.0 °F - 37.4 °F 62% 30.15 in - Calm Calm - N/A   Clear
11:00 AM 53 °F - 39 °F 47% 30.18 in - ESE 1.2 mph - -  
11:00 AM 53.6 °F - 39.2 °F 58% 30.15 in - Variable 1.2 mph - N/A   Clear
11:30 AM 55.4 °F - 41.0 °F 58% 30.15 in 6.2 mi Variable 1.2 mph - N/A   Partly Cloudy
12:00 PM 57 °F - 42 °F 47% 30.17 in - South 1.2 mph - -  
12:00 PM 55.4 °F - 42.8 °F 63% 30.15 in 6.2 mi Variable 1.2 mph - N/A   Partly Cloudy
12:30 PM 57.2 °F - 44.6 °F 63% 30.12 in 6.2 mi Variable 1.2 mph - N/A   Partly Cloudy
1:00 PM 58 °F - 44 °F 49% 30.13 in 28 mi South 2.3 mph - -   Scattered Clouds
1:00 PM 57.2 °F - 42.8 °F 59% 30.12 in 6.2 mi Variable 2.3 mph - N/A   Partly Cloudy
1:30 PM 55.4 °F - 44.6 °F 67% 30.09 in 6.2 mi South 3.5 mph - N/A   Partly Cloudy
2:00 PM 57 °F - 48 °F 62% 30.09 in - SSW 10.4 mph - -  
2:00 PM 57.2 °F - 48.2 °F 72% 30.09 in 6.2 mi SSW 8.1 mph - N/A   Partly Cloudy
2:30 PM 57.2 °F - 48.2 °F 72% 30.09 in 6.2 mi SW 17.3 mph - N/A   Partly Cloudy
3:00 PM 57 °F - 47 °F 62% 30.07 in - SW 16.1 mph - -  
3:00 PM 57.2 °F - 46.4 °F 67% 30.06 in 6.2 mi SW 17.3 mph - N/A   Partly Cloudy
3:30 PM 57.2 °F - 46.4 °F 67% 30.06 in 6.2 mi SW 17.3 mph - N/A   Partly Cloudy
4:00 PM 57 °F - 47 °F 59% 30.07 in 28 mi SW 16.1 mph - -   Scattered Clouds
4:00 PM 57.2 °F - 46.4 °F 67% 30.06 in 6.2 mi SW 16.1 mph - N/A   Partly Cloudy
4:30 PM 57.2 °F - 46.4 °F 67% 30.06 in 6.2 mi WSW 15.0 mph - N/A   Partly Cloudy
5:00 PM 57 °F - 47 °F 59% 30.07 in - WSW 16.1 mph - -  
5:00 PM 57.2 °F - 46.4 °F 67% 30.06 in 6.2 mi WSW 17.3 mph - N/A   Partly Cloudy
5:30 PM 55.4 °F - 48.2 °F 77% 30.04 in 6.2 mi WSW 15.0 mph - N/A   Partly Cloudy
6:00 PM 56 °F - 47 °F 63% 30.07 in - WSW 20.7 mph - -  
6:00 PM 55.4 °F - 46.4 °F 72% 30.06 in 6.2 mi WSW 19.6 mph - N/A   Scattered Clouds
6:30 PM 55.4 °F - 48.2 °F 77% 30.06 in 6.2 mi WSW 20.7 mph - N/A   Scattered Clouds
7:00 PM 55 °F - 48 °F 71% 30.07 in 28 mi WSW 12.7 mph - -   Scattered Clouds
7:00 PM 55.4 °F - 48.2 °F 77% 30.06 in 6.2 mi WSW 12.7 mph - N/A   Scattered Clouds
7:30 PM 53.6 °F - 48.2 °F 82% 30.06 in 6.2 mi WSW 10.4 mph - N/A   Scattered Clouds
8:00 PM 55.4 °F - 48.2 °F 77% 30.06 in 6.2 mi WSW 9.2 mph - N/A   Partly Cloudy
8:30 PM 53.6 °F - 46.4 °F 77% 30.09 in 6.2 mi WNW 5.8 mph - N/A   Partly Cloudy
9:00 PM 54 °F - 47 °F 71% 30.10 in - WSW 17.3 mph - -  
9:00 PM 53.6 °F - 48.2 °F 82% 30.09 in 6.2 mi WSW 16.1 mph - N/A   Partly Cloudy
9:30 PM 53.6 °F - 46.4 °F 77% 30.09 in 6.2 mi WSW 12.7 mph - N/A   Partly Cloudy
10:00 PM 53 °F - 46 °F 69% 30.11 in 25 mi WSW 3.5 mph - -   Clear
10:00 PM 51.8 °F - 46.4 °F 82% 30.09 in - WSW 3.5 mph - N/A   Clear
10:30 PM 51.8 °F - 46.4 °F 82% 30.09 in - Variable 2.3 mph - N/A   Clear
11:00 PM 49 °F - 45 °F 79% 30.11 in - Calm Calm - -  
11:00 PM 50.0 °F - 44.6 °F 82% 30.09 in 6.2 mi Calm Calm - N/A   Unknown
11:30 PM 50.0 °F - 44.6 °F 82% 30.09 in 6.2 mi Variable 1.2 mph - N/A   Unknown